www.pogodaiklimat.ru

Погода и климат >> Архив погоды >> Россия >> Якутия >> Оленек


ПОГОДА в Оленеке

АРХИВ ПОГОДЫ в Оленеке

Время (UTC), дата Ветер
(напр.,м/с)
 
Видим.   Явления Облачность Т
(С)
Тd
(С)
f
(%)
Тe
(С)
Тes
(С)
Комфортность P
(гПа)
Po
(гПа)
Тmin
(С)
Tmax
(С)
R
(мм)
R24
(мм)
S
(см)
12 18.09 СВ 1 н/о н/о +0.7 -1.5 85 -1 -1 1019.5 992.1 +3.8
15 18.09 З 1 н/о н/о -0.6 -2.6 86 -3 -3 1020.0 992.4
18 18.09 штиль 0 н/о н/о -2.8 -2.8 100 -4 -4 1020.3 992.5
21 18.09 СЗ 2 н/о н/о -5.5 -5.5 100 -10 -10 1020.6 992.5
00 19.09 штиль 0 50 км 1/0
[Ac trans]
-5.0 -5.1 99 -6 -6 1020.0 992.0 -7.6
03 19.09 ЮВ 1 50 км 1/0
[Ac trans]
+3.9 -1.3 69 +3 +5 1018.4 991.3
06 19.09 Ю 4 50 км 4/0
[Ci sp]
+8.3 -3.6 43 +6 +7 1016.0 989.4
09 19.09 Ю 2 50 км 10/0
[Ac As]
+7.6 -1.9 51 +6 +6 1014.6 988.0
12 19.09 ЮЗ 2 н/о н/о +6.3 -0.8 60 +4 +4 1013.8 987.1 +8.3
15 19.09 З 2 н/о н/о +5.5 -1.5 61 +3 +3 1013.5 986.7
18 19.09 З 1 н/о н/о +4.0 -1.4 68 +3 +3 1013.7 986.7
21 19.09 СЗ 2 н/о н/о +2.6 -0.6 79 -0 -0 1014.3 987.2
00 20.09 З 2 50 км 10/8 870 м
[Sc As op]
+2.0 +0.7 91 -1 -1 1015.7 988.5 +2.0
03 20.09 З 2 50 км 8/5 600 м
[Sc Ac As]
+4.8 +0.1 72 +2 +3 1016.8 989.8 +1.9
06 20.09 С 1 50 км 10/6 800 м
[Cb cap Ci sp]
+5.3 -0.8 65 +4 +5 1017.7 990.8
09 20.09 З 1 50 км 10/8 930 м
[Cb cap Ac As]
+5.3 -0.8 65 +4 +4 1018.9 992.0
12 20.09 З 1 н/о н/о +4.0 +0.8 80 +3 +3 1020.1 993.0 +5.9
15 20.09 З 1 н/о н/о +2.9 +2.1 94 +1 +1 1020.5 993.3
18 20.09 З 1 н/о н/о +2.0 +1.9 99 0 0 1021.0 993.7
21 20.09 В 1 н/о н/о +0.4 +0.4 100 -2 -2 1020.9 993.4
00 21.09 В 2 2000 м дымка ?/? +0.8 +0.8 100 -3 -3 1020.2 992.8 +0.3
03 21.09 В 2 50 км 8/0
[Ac As Ci sp]
+5.2 +3.5 89 +3 +4 1017.9 990.9
06 21.09 Ю 3 50 км 10/0
[Ac As Ci sp]
+9.7 +0.9 54 +8 +9 1015.1 988.7
09 21.09 З 4
{10}
50 км 10/8 800 м
[Cb cap As op]
+8.3 +2.1 65 +5 +5 1014.5 987.9
12 21.09 Ю 1 н/о н/о +7.5 +2.1 69 +7 +7 1014.0 987.4 +10.0
15 21.09 З 1 н/о н/о +7.1 +2.2 71 +6 +6 1012.7 986.1
18 21.09 З 3 н/о н/о +7.4 +1.8 68 +5 +5 1012.0 985.4
21 21.09 З 2 н/о н/о +5.7 +1.4 74 +3 +3 1012.2 985.4
00 22.09 З 3 н/о н/о +5.7 +1.4 74 +3 +3 1013.2 986.5 +5.4
03 22.09 З 4 н/о н/о +8.2 +1.7 64 +5 +5 1013.2 986.7
06 22.09 З 4 н/о н/о +8.6 +0.3 56 +6 +6 1013.5 987.0
09 22.09 З 2 н/о н/о +8.7 +0.5 56 +7 +7 1013.7 987.2
12 22.09 З 1 н/о н/о +6.3 +3.7 83 +5 +5 1014.6 987.9 +9.2
15 22.09 ЮЗ 1 н/о н/о +4.6 +2.7 87 +3 +3 1015.3 988.4
18 22.09 З 1 н/о н/о +2.8 +1.9 94 +1 +1 1015.9 988.8
21 22.09 С 1 н/о н/о +2.4 +1.9 96 +1 +1 1016.2 989.0
00 23.09 В 2 н/о н/о +1.8 +1.7 99 -2 -2 1016.3 989.1 +0.5
03 23.09 ЮВ 2 н/о н/о +7.3 +2.0 69 +5 +5 1014.9 988.3
06 23.09 Ю 2 н/о н/о +12.3 +0.9 46 +12 +12 1012.6 986.4
09 23.09 ЮЗ 3 н/о н/о +13.1 +0.6 42 +12 +12 1010.8 984.8
12 23.09 ЮЗ 3 н/о н/о +10.7 +1.7 54 +9 +9 1010.3 984.1 +13.7
15 23.09 З 2 н/о н/о +9.1 +2.5 63 +8 +8 1009.4 983.0
18 23.09 З 3 н/о н/о +7.6 +2.2 69 +5 +5 1008.6 982.1
21 23.09 З 1 н/о н/о +5.4 +1.7 77 +4 +4 1008.2 981.5
00 24.09 З 1 50 км 5/0
[Ac trans Ci fib]
+4.7 +1.4 79 +4 +4 1007.9 981.2 +3.7
03 24.09 З 3 50 км 10/5 600 м
[Cb cap Ci sp]
+8.5 +2.1 64 +6 +7 1007.0 980.7
06 24.09 СЗ 1 50 км 10/5 1000 м
[Sc Ac und]
+9.7 +2.7 62 +10 +10 1006.5 980.3
09 24.09 З 1 50 км 10/5 600 м
[Sc Ac und]
+10.1 +3.4 63 +10 +10 1006.3 980.1
12 24.09 С 2 н/о н/о +7.6 +3.5 75 +6 +6 1006.7 980.3
15 24.09 В 1 н/о н/о +5.9 +3.5 85 +5 +5 1006.9 980.3
18 24.09 СВ 1 н/о н/о +2.9 +2.8 99 +1 +1 1006.8 979.9
21 24.09 В 1 н/о н/о +1.5 +1.4 99 -1 -1 1006.3 979.3
00 25.09 З 1 4000 м слабый ливневой дождь 10/5 300 м
[Cb cap Ac und]
+0.8 +0.5 98 -1 -1 1007.2 980.1 -1.0 0.0
03 25.09 штиль 0 4000 м в посл. час морось {ливн. осадки} 10/5 300 м
[Sc As op]
+2.3 +2.1 99 +1 +1 1007.0 980.1
06 25.09 З 1 50 км {ливн. осадки, морось} 10/8 570 м
[Cb cap Ac und]
+6.2 +6.0 99 +5 +5 1007.8 981.2
09 25.09 СВ 5 50 км 10/6 480 м
[Cb cap Ac und]
+6.0 +5.8 99 +1 +1 1008.8 982.2

 

Местоположение метеостанции Оленек (Якутия, Россия): широта 68.50 долгота 112.40 высота над уровнем моря 220 м.

В архиве по умолчанию представлена погода в Оленеке за последнюю неделю. Архивные данные за месяц целиком и за предыдущие месяцы, начиная с января 2011 года, Вы можете получить, выбрав интересующий диапазон дат из раскрывающегося списка и нажав кнопку "Ввод!".


*Определитесь, кто Вы:
робот инопланетянин человек

Внимание! Время в таблицах - всемирное. Для получения местного времени необходимо прибавить поправку, которая в Оленеке равна 9 ч.

Смотрите также архив погоды в соседних городах и на ближайших метеорологических станциях:

Погода в Джалинде (Якутия, Россия) (191 км)
Погода в Полярном (Якутия, Россия) (197 км)
Погода в Ярольине (Якутия, Россия) (224 км)
Погода в Сухане (Якутия, Россия) (240 км)
Погода в Шелагонцах (Якутия, Россия) (262 км)
Погода в Айхале (Якутия, Россия) (289 км)
Погода в Эйке (Якутия, Россия) (349 км)
Погода в Саскылахе (Якутия, Россия) (391 км)
Погода в Хабардино (Якутия, Россия) (434 км)
Погода в Джарджане (Якутия, Россия) (470 км)

Пояснения к столбцам:

Ветер - указаны скорость ветра в м/с - средняя за 10 мин, порывы в срок и между сроками (в фигурных скобках) и направление, откуда дует ветер: С - северный, СВ - северо-восточный, В - восточный, ЮВ - юго-восточный, Ю - южный, ЮЗ - юго-западный, З - западный, СЗ - северо-западный.
Видимость - горизонтальная дальность видимости в метрах или километрах. При видимости от 1 до 10 км при отсутствии осадков обычно наблюдается дымка, при ухудшении видимости до 1 км и менее - туман. В сухую погоду видимость может ухудшаться дымом, пылью или мглою.
Явления - указаны атмосферные явления, наблюдавшиеся в срок или в последний час перед сроком; фигурными скобками обозначены явления, наблюдавшиеся между сроками (за 1-3 часа до срока); квадратными скобками обозначены град или гололедные отложения с указанием их диаметра в мм.
Облачность - указаны через наклонную черту общая и нижняя облачность в баллах и высота нижней границы облаков в метрах; квадратными скобками обозначены формы облаков: Ci - перистые, Cs - перисто-слоистые, Cc - перисто-кучевые, Ac - высококучевые, As - высокослоистые, Sc - слоисто-кучевые, Ns - слоисто-дождевые, Cu - кучевые, Cb - кучево-дождевые. Подробнее классификацию облаков см. в Атласе облаков (PDF).
T - Температура воздуха - температура, измеренная на высоте 2 м над землей.
Td - Температура точки росы - температура, при понижении до которой содержащийся в воздухе водяной пар достигнет насыщения.
f - Относительная влажность воздуха - влажноcть воздуха, измеренная на высоте 2 м над землей.
Te - Эффективная температура - температура, которую ощущает одетый по сезону человек в тени. Характеристика душности погоды. При расчете учитывается влияние влажности воздуха и скорости ветра на теплоощущения человека.
Tes - Эффективная температура на солнце - температура, которую ощущает человек, с поправкой на солнечный нагрев. Характеристика знойности погоды. Зависит от высоты солнца над горизонтом, облачности и скорости ветра. Ночью, в пасмурную погоду, а также при ветре 12 м/с и более поправка равна нулю.
P - Атмосферное давление - приведенное к уровню моря атмосферное давление.
Po - Атмосферное давление - измеренное на уровне метеостанции атмосферное давление.
Tmin - Минимальная температура - минимум температуры воздуха на высоте 2 м над землей.
Tmax - Максимальная температура - максимум температуры воздуха на высоте 2 м над землей.
R - Количество осадков - Количество выпавших осадков за период времени, мм. При наведении курсора мыши на число - период времени, за который выпало указанное количество осадков.
R24 - Количество осадков - Количество выпавших осадков за 24 часа, мм.
S - Снежный покров - Высота снежного покрова, см. При наведении курсора мыши на число - состояние снежного покрова и степень покрытия местности в баллах.